ZHONGXING-11

Last updated on Sat Oct 18 2025 00:02:53 GMT+0000 (Coordinated Universal Time)

1 39157U 13020A 25290.79578789 -.00000299 00000+0 00000+0 0 9998 2 39157 0.0148 264.8735 0001935 320.5614 185.5112 1.00271790 45463
UTC large
Height (km)
Speed (km/s)
/
Latitude / Longitude
Inclination (degrees)
Orbital Period (minutes)
Azimuth
Elevation
Range (km)
Doppler Factor

Next 0 passes for location: London (51.5072 / 0.1276)

Sorry there are no passes over London.